Weather History for Salamanca, Spain

Change the Weather History Date:

Friday, February 7, 2014

  Actual Average Record
Temperature  
Mean Temperature 40 °F -  
Max Temperature 46 °F - - ()
Min Temperature 33 °F - - ()
Degree Days  
Heating Degree Days 26    
Moisture  
Dew Point 36 °F    
Average Humidity 83    
Maximum Humidity 93    
Minimum Humidity 55    
Precipitation  
Precipitation 0.00 in 0.05 in - ()
Sea Level Pressure  
Sea Level Pressure 29.97 in    
Wind  
Wind Speed 16 mph ()    
Max Wind Speed 24 mph    
Max Gust Speed 34 mph    
Visibility 6.6 miles    
Events Rain    
T = Trace of Precipitation, MM = Missing Value Source: Averaged Metar Reports

Daily Weather History Graph

Daily Weather History Graph

Search for Another Location

Airport:

Trip Planner

Search our weather history database for the weather conditions in past years. The results will help you decide how hot, cold, wet, or windy it might be!

Date:

Astronomy

Feb. 07, 2014 Rise Set
Actual Time 8:26 AM CET 6:46 PM CET
Civil Twilight 7:57 AM CET 7:15 PM CET
Nautical Twilight 7:25 AM CET 7:47 PM CET
Astronomical Twilight 6:53 AM CET 8:19 PM CET
Moon 12:47 PM CET (2/7) 2:28 AM CET (2/7)
Length of Visible Light 11h 17m
Length of Day
10h 20m
First Quarter, 56% of the Moon is Illuminated
Feb 7
First Quarter
Feb 15
Full
Feb 22
Last Quarter
Mar 1
New
Mar 8
First Quarter

Hourly Weather History & Observations

Time (CET) Temp. Windchill Dew Point Humidity Pressure Visibility Wind Dir Wind Speed Gust Speed Precip Events Conditions
12:00 AM 40 °F - 36 °F 82%  in - West 24.2 mph - -  
12:00 AM 39.2 °F 28.7 °F 37.4 °F 93% 29.80 in 6.2 mi West 23.0 mph - N/A   Mostly Cloudy
12:30 AM 39.2 °F 29.8 °F 35.6 °F 87% 29.80 in 6.2 mi West 18.4 mph - N/A   Scattered Clouds
1:00 AM 39 °F - 36 °F 84%  in 9 mi West 19.6 mph - -   Partly Cloudy
1:00 AM 39.2 °F 29.6 °F 35.6 °F 87% 29.83 in 6.2 mi West 19.6 mph - N/A   Scattered Clouds
1:30 AM 39.2 °F 29.8 °F 35.6 °F 87% 29.83 in 6.2 mi West 18.4 mph - N/A   Mostly Cloudy
2:00 AM 38 °F - 35 °F 85%  in - West 18.4 mph - -  
2:00 AM 37.4 °F 27.5 °F 35.6 °F 93% 29.86 in 6.2 mi West 18.4 mph - N/A   Mostly Cloudy
2:30 AM 37.4 °F 28.2 °F 35.6 °F 93% 29.86 in 6.2 mi West 16.1 mph - N/A   Scattered Clouds
3:00 AM 38 °F - 35 °F 82%  in - West 17.3 mph - -  
3:00 AM 37.4 °F 28.5 °F 35.6 °F 93% 29.89 in 6.2 mi West 15.0 mph - N/A   Scattered Clouds
3:30 AM 37.4 °F 28.2 °F 35.6 °F 93% 29.92 in 6.2 mi West 16.1 mph - N/A   Scattered Clouds
4:00 AM 37 °F - 34 °F 84%  in 9 mi West 13.8 mph - -   Scattered Clouds
4:00 AM 37.4 °F 28.9 °F 33.8 °F 87% 29.92 in 6.2 mi West 13.8 mph - N/A   Partly Cloudy
4:30 AM 37.4 °F 29.3 °F 33.8 °F 87% 29.95 in 6.2 mi West 12.7 mph - N/A   Partly Cloudy
5:00 AM 35 °F - 32 °F 86%  in - WSW 11.5 mph - -  
5:00 AM 35.6 °F 27.5 °F 32.0 °F 87% 29.95 in 6.2 mi WSW 11.5 mph - N/A   Partly Cloudy
5:30 AM 35.6 °F 28.6 °F 33.8 °F 93% 29.95 in 6.2 mi WSW 9.2 mph - N/A   Partly Cloudy
6:00 AM 35 °F - 32 °F 86%  in - WSW 12.7 mph - -  
6:00 AM 35.6 °F 27.1 °F 32.0 °F 87% 29.95 in 6.2 mi WSW 12.7 mph - N/A   Scattered Clouds
6:30 AM 35.6 °F 27.1 °F 32.0 °F 87% 29.98 in 6.2 mi West 12.7 mph - N/A   Partly Cloudy
7:00 AM 34 °F - 32 °F 88%  in 9 mi WSW 11.5 mph - -   Scattered Clouds
7:00 AM 33.8 °F 25.3 °F 32.0 °F 93% 29.98 in - WSW 11.5 mph - N/A   Clear
7:30 AM 33.8 °F 25.3 °F 32.0 °F 93% 29.98 in - WSW 11.5 mph - N/A   Clear
8:00 AM 35 °F - 32 °F 86%  in - SW 12.7 mph - -  
8:00 AM 33.8 °F 25.3 °F 32.0 °F 93% 30.01 in 6.2 mi WSW 11.5 mph - N/A   Scattered Clouds
8:30 AM 35.6 °F 28.0 °F 32.0 °F 87% 30.01 in - SW 10.4 mph - N/A   Clear
9:00 AM 36 °F - 33 °F 83%  in - SSW 9.2 mph - -  
9:00 AM 35.6 °F 28.0 °F 33.8 °F 93% 30.01 in 6.2 mi SSW 10.4 mph - N/A   Partly Cloudy
9:30 AM 37.4 °F 29.3 °F 33.8 °F 87% 30.04 in 6.2 mi SW 12.7 mph - N/A   Scattered Clouds
10:00 AM 38 °F - 34 °F 79%  in 9 mi SSW 13.8 mph - -   Mostly Cloudy
10:00 AM 37.4 °F 28.9 °F 33.8 °F 87% 30.04 in 6.2 mi SW 13.8 mph - N/A   Mostly Cloudy
10:30 AM 39.2 °F 30.2 °F 33.8 °F 81% 30.04 in 6.2 mi SSW 17.3 mph - N/A   Mostly Cloudy
11:00 AM 40 °F - 35 °F 76%  in - SW 19.6 mph - -  
11:00 AM 39.2 °F 29.8 °F 35.6 °F 87% 30.04 in 3.7 mi SW 18.4 mph - N/A   Light Drizzle
11:30 AM 42.8 °F 34.5 °F 37.4 °F 81% 30.04 in 5.6 mi SW 18.4 mph - N/A   Mostly Cloudy
12:00 PM 43 °F - 36 °F 68%  in - SSW 21.9 mph - -  
12:00 PM 42.8 °F 34.0 °F 37.4 °F 81% 30.04 in 6.2 mi SW 20.7 mph - N/A   Mostly Cloudy
12:30 PM 41.0 °F 32.2 °F 37.4 °F 87% 30.06 in 3.7 mi SW 18.4 mph - N/A Rain Light Rain
1:00 PM 42 °F - 37 °F 76%  in 6 mi SW 20.7 mph - - Rain Light Rain
1:00 PM 41.0 °F 31.9 °F 37.4 °F 87% 30.06 in 5.6 mi SW 19.6 mph - N/A Rain Light Rain
1:30 PM 42.8 °F 33.8 °F 37.4 °F 81% 30.04 in 6.2 mi SW 21.9 mph - N/A   Mostly Cloudy
2:00 PM 44 °F - 37 °F 68%  in - SW 23.0 mph - -   Unknown Precipitation
2:00 PM 44.6 °F 35.9 °F 37.4 °F 76% 30.04 in 6.2 mi WSW 23.0 mph - N/A   Mostly Cloudy
2:30 PM 44.6 °F 36.1 °F 37.4 °F 76% 30.04 in 6.2 mi WSW 21.9 mph - N/A   Mostly Cloudy
3:00 PM 45 °F - 36 °F 62%  in - WSW 23.0 mph - -  
3:00 PM 44.6 °F 36.1 °F 35.6 °F 71% 30.01 in 6.2 mi WSW 21.9 mph - N/A   Mostly Cloudy
3:30 PM 44.6 °F 37.2 °F 37.4 °F 76% 30.01 in 6.2 mi SW 17.3 mph - N/A   Mostly Cloudy
4:00 PM 46 °F - 35 °F 55%  in 12 mi WSW 24.2 mph - -   Partly Cloudy
4:00 PM 46.4 °F 38.5 °F 35.6 °F 66% 30.01 in 6.2 mi WSW 21.9 mph 34.5 mph N/A   Scattered Clouds
4:30 PM 44.6 °F 37.4 °F 37.4 °F 76% 30.01 in 6.2 mi SW 16.1 mph - N/A   Scattered Clouds
5:00 PM 45 °F - 37 °F 66%  in - SW 19.6 mph - -  
5:00 PM 44.6 °F 36.6 °F 37.4 °F 76% 29.98 in 6.2 mi SW 19.6 mph - N/A   Scattered Clouds
5:30 PM 44.6 °F 36.6 °F 39.2 °F 81% 29.98 in 6.2 mi SW 19.6 mph - N/A   Mostly Cloudy
6:00 PM 44 °F - 38 °F 71%  in - SW 16.1 mph - -  
6:00 PM 44.6 °F 37.8 °F 39.2 °F 81% 30.01 in 6.2 mi SW 15.0 mph - N/A   Scattered Clouds
6:30 PM 42.8 °F 35.8 °F 39.2 °F 87% 29.98 in 6.2 mi SW 13.8 mph - N/A   Partly Cloudy
7:00 PM 42 °F - 37 °F 77%  in 12 mi SSW 11.5 mph - -   Partly Cloudy
7:00 PM 42.8 °F 37.0 °F 37.4 °F 81% 29.98 in 6.2 mi SSW 10.4 mph - N/A   Partly Cloudy
7:30 PM 41.0 °F 33.9 °F 37.4 °F 87% 29.98 in 6.2 mi SSW 12.7 mph - N/A   Scattered Clouds
8:00 PM 43 °F - 39 °F 79%  in - SSW 17.3 mph - -  
8:00 PM 42.8 °F 35.1 °F 39.2 °F 87% 29.98 in 6.2 mi SW 16.1 mph - N/A   Mostly Cloudy
8:30 PM 42.8 °F 35.4 °F 39.2 °F 87% 29.98 in 6.2 mi SSW 15.0 mph - N/A   Mostly Cloudy
9:00 PM 43 °F - 38 °F 78%  in - SSW 16.1 mph - -  
9:00 PM 42.8 °F 34.8 °F 39.2 °F 87% 29.95 in 6.2 mi SW 17.3 mph - N/A   Mostly Cloudy
9:30 PM 42.8 °F 34.8 °F 39.2 °F 87% 29.95 in 6.2 mi SW 17.3 mph - N/A   Partly Cloudy
10:00 PM 44 °F - 39 °F 78%  in 12 mi SW 19.6 mph - -   Overcast
10:00 PM 44.6 °F 36.9 °F 39.2 °F 81% 29.92 in 6.2 mi SW 18.4 mph - N/A   Mostly Cloudy
10:30 PM 42.8 °F 34.3 °F 39.2 °F 87% 29.92 in 6.2 mi SW 19.6 mph - N/A   Mostly Cloudy
11:00 PM 44 °F - 39 °F 77%  in - SW 23.0 mph - -  
11:00 PM 44.6 °F 35.9 °F 39.2 °F 81% 29.92 in 6.2 mi SW 23.0 mph - N/A   Mostly Cloudy
11:30 PM 44.6 °F 36.9 °F 41.0 °F 87% 29.89 in 6.2 mi SW 18.4 mph - N/A   Mostly Cloudy